Temperature
20 20 19 19 19 19 18 18 18 17 17 16 15 15 15 15 14 14 14 13 13 12 12 12 11 11 11 10 10 10 10 10 9 9 9 9 9 10 10 10 10 10 10
19 19 19 19 19 19 19 19 18 18 17 17 17 16 16 15 15 14 14 13 13 13 12 12 12 11 11 10 10 10 10 10 9 9 9 9 9 10 10 10 10 10 10
19 19 19 20 20 19 19 19 19 18 18 18 17 16 15 14 14 14 14 14 13 13 13 12 12 11 11 11 10 10 10 10 9 9 9 9 9 9 10 10 10 10 10
19 19 19 20 20 20 20 19 19 19 18 18 17 16 16 15 16 16 15 15 14 13 13 13 12 12 11 11 11 10 10 10 10 9 9 9 9 8 9 9 9 9 9
18 19 19 19 20 20 19 19 19 19 18 18 17 17 16 17 16 16 15 15 14 14 13 13 12 12 12 11 11 11 10 10 10 9 9 9 9 8 8 8 9 9 9
18 19 19 19 19 19 19 19 19 19 18 18 17 17 17 17 16 16 15 15 15 14 14 13 13 12 12 12 11 11 10 10 10 10 9 9 9 9 8 8 8 8 8
18 18 18 19 19 19 19 19 19 19 18 18 17 17 17 17 16 16 16 16 15 15 14 14 13 13 12 12 11 11 11 10 10 10 9 9 9 9 8 8 8 7 8
17 18 18 18 18 19 19 19 19 19 18 18 18 17 17 17 16 16 16 16 16 16 15 14 14 13 12 12 11 11 11 10 10 10 9 9 9 9 8 8 7 7 7
17 17 17 18 18 18 18 18 18 18 18 18 18 17 17 16 16 16 16 15 15 15 15 14 14 13 13 12 11 11 11 10 10 10 9 9 9 8 8 8 7 7 6
15 16 16 17 17 17 18 18 18 18 18 18 17 17 17 16 16 16 15 15 15 15 14 14 14 13 13 12 11 11 11 10 10 10 9 9 9 8 8 8 7 7 6
14 15 15 16 16 16 17 17 17 17 17 17 17 17 16 16 16 15 15 15 15 14 14 14 13 13 13 12 11 11 11 10 10 9 9 9 9 8 8 7 7 6 6
14 14 14 15 15 15 16 16 16 16 17 17 17 17 16 16 15 15 15 15 14 14 14 14 13 13 12 12 11 11 11 10 10 9 9 9 8 8 8 7 7 6 6
13 14 14 14 14 15 15 15 16 16 16 16 16 16 16 16 16 15 15 15 14 14 13 13 13 13 12 12 11 11 11 10 10 9 9 8 8 8 7 7 6 6 5
12 13 13 13 14 14 14 15 15 15 15 15 16 16 16 16 16 15 15 14 14 13 13 13 13 12 12 11 11 11 10 10 9 9 8 8 8 7 7 6 6 6 5
12 12 12 13 13 13 14 14 14 15 15 15 15 15 15 15 15 15 15 14 14 13 13 13 12 12 11 11 11 10 10 9 9 8 8 8 7 7 7 6 6 5 4
11 11 12 12 12 13 13 14 14 14 14 14 14 15 15 15 15 14 14 14 13 13 13 12 12 12 11 11 11 10 9 9 8 8 8 7 7 7 6 6 5 4 4
10 11 11 11 12 12 12 13 13 13 13 14 14 14 14 14 14 14 13 13 13 13 12 12 11 11 11 11 10 9 9 8 8 8 7 7 7 6 6 5 5 4 4
10 10 11 11 11 11 12 12 13 13 13 13 13 13 13 13 13 13 13 12 12 12 12 11 11 11 10 10 9 9 8 8 7 7 7 7 6 6 5 5 4 4 3
10 10 10 10 10 11 11 11 12 12 12 12 12 12 12 12 12 12 12 12 12 11 11 11 10 10 9 9 8 8 7 7 7 6 6 6 6 5 5 4 3 3 3
9 9 9 10 10 10 10 10 11 11 11 11 11 11 11 11 11 12 11 11 11 11 10 10 9 9 9 8 8 8 7 6 6 6 5 5 5 5 4 3 3 2 2
8 9 9 9 9 9 9 9 10 10 10 10 10 10 10 11 11 11 10 10 10 10 9 9 8 8 8 8 7 7 6 6 6 5 5 5 4 4 3 3 2 2 1
8 8 8 8 9 9 9 9 9 9 9 9 9 10 10 10 10 9 9 9 9 9 8 8 7 7 7 6 6 6 6 5 5 5 4 4 4 3 2 2 1 1 0
7 7 7 8 8 8 8 8 8 8 8 8 9 9 9 9 9 8 8 8 8 8 8 7 7 6 6 6 5 5 5 4 4 4 4 3 3 2 2 1 1 0 -0
6 6 6 7 7 7 7 7 7 7 7 7 8 8 8 8 8 8 7 8 7 7 7 6 6 5 5 5 4 4 4 4 3 3 3 2 2 1 1 0 -0 -1 -1
5 5 5 6 6 6 6 6 6 6 6 6 7 7 7 7 7 7 6 7 7 7 7 6 5 5 5 4 4 4 3 3 3 2 2 1 1 1 0 -0 -1 -2 -2
5 5 5 5 5 5 5 5 5 5 5 6 6 6 6 6 5 5 5 5 5 5 5 5 5 4 4 4 3 3 3 2 2 2 1 1 0 -0 -1 -1 -2 -2 -3
Wind_Speed
13 11 12 13 13 14 16 17 18 18 16 14 14 13 14 13 12 12 14 17 17 17 14 10 9 9 9 8 8 5 5 4 3 1 3 4 4 5 5 5 4 6 8
10 9 10 10 14 16 17 18 19 19 18 17 16 12 11 10 11 9 11 16 16 17 15 12 10 10 9 8 9 6 4 4 5 4 1 3 4 3 3 4 5 6 5
13 11 10 11 12 15 18 18 20 21 21 18 11 7 6 4 7 10 12 14 16 17 15 14 11 11 10 10 11 10 8 6 5 5 4 3 5 3 3 3 4 4 4
12 11 9 9 12 15 15 17 18 19 19 18 15 16 14 15 15 12 13 12 15 15 16 14 14 12 11 10 11 11 8 7 6 4 5 4 3 3 3 3 3 4 5
11 11 11 11 12 12 13 14 16 18 18 19 20 20 18 15 10 8 11 12 13 14 15 14 13 13 12 12 11 11 10 9 7 6 4 4 3 4 4 5 4 3 4
10 10 9 8 8 8 9 11 14 16 18 20 20 21 21 16 12 13 14 12 10 12 14 14 14 13 12 13 12 12 12 11 9 7 6 5 4 5 6 7 6 5 4
8 8 8 7 7 7 8 9 13 16 16 19 20 21 21 19 18 16 16 13 11 11 15 15 14 13 13 12 12 12 12 12 10 10 8 8 7 5 5 5 5 5 4
7 7 8 7 7 8 8 9 12 14 15 18 20 19 18 15 14 15 13 15 13 14 13 15 15 14 13 12 12 11 11 10 11 11 10 8 8 6 6 5 4 4 4
7 6 6 6 6 7 8 10 11 12 14 16 16 16 17 16 15 14 13 12 11 10 13 14 14 14 13 13 12 10 12 11 11 11 10 9 7 7 6 6 5 5 5
6 6 5 5 5 5 6 7 9 11 12 13 14 14 15 16 14 12 14 13 12 11 12 14 14 13 13 13 12 10 10 11 10 9 10 9 7 6 6 6 6 6 6
7 7 6 5 5 4 4 5 7 8 9 10 12 13 14 14 13 13 14 13 12 12 13 14 14 14 13 13 13 12 12 13 11 9 10 11 8 7 6 5 5 6 6
7 7 6 6 5 5 4 5 5 7 8 8 9 11 12 12 13 14 13 12 12 12 13 13 13 13 13 13 14 14 13 13 13 12 11 11 8 8 6 6 7 6 7
8 7 6 6 6 5 5 5 5 6 7 7 8 8 10 12 14 14 12 12 12 12 12 12 13 13 13 13 13 13 13 13 13 12 12 11 10 9 7 7 7 6 6
7 7 7 6 6 6 5 5 6 5 5 6 7 9 11 12 13 12 12 12 12 13 13 13 13 13 13 13 13 12 12 12 11 11 11 11 11 11 10 8 8 6 5
9 8 7 7 7 7 6 6 6 5 5 6 8 10 9 9 10 10 11 11 11 12 12 12 11 11 11 11 12 12 12 12 10 9 10 10 11 12 10 8 7 7 6
9 9 9 8 8 8 7 7 6 5 5 7 9 8 7 8 9 10 10 10 10 10 10 11 12 12 10 14 17 14 11 11 11 10 9 9 10 11 12 11 10 9 7
9 10 9 8 8 8 7 7 7 5 5 6 7 7 8 8 9 8 9 10 10 9 10 11 11 11 12 15 16 16 12 10 10 10 9 7 7 9 7 8 8 8 8
10 9 8 8 8 7 7 6 5 4 4 5 6 6 7 8 7 8 9 9 8 9 9 10 10 10 10 14 15 16 11 9 9 9 10 9 8 8 9 7 6 5 5
9 9 8 8 8 7 6 5 5 4 4 5 6 6 7 7 7 9 9 8 8 8 8 8 9 9 9 13 14 14 8 7 8 7 8 9 9 11 12 9 7 5 4
8 8 7 7 7 7 5 5 4 4 5 6 6 5 6 7 8 8 7 5 6 7 7 7 7 8 8 11 13 13 8 7 6 6 7 10 10 12 12 9 8 7 5
9 8 7 6 6 5 4 5 4 5 6 5 4 3 4 5 6 5 5 5 5 6 6 6 6 6 8 10 13 14 8 8 7 6 6 6 11 12 12 10 7 7 6
8 7 6 6 5 4 3 4 5 6 5 3 3 3 4 3 3 5 5 5 6 7 6 6 5 4 5 7 10 13 10 9 8 7 6 7 11 11 10 8 7 8 6
7 6 5 6 5 4 2 4 6 5 4 2 2 3 2 3 4 6 6 6 6 6 6 6 6 4 4 5 9 11 11 10 6 6 9 10 11 9 7 7 8 7 5
6 5 5 5 6 5 4 4 4 3 3 3 2 2 2 2 3 4 5 6 7 6 6 7 6 5 4 5 5 6 7 8 6 6 8 10 9 7 6 6 5 3 4
5 5 5 5 6 6 5 5 3 2 2 3 2 2 2 2 3 3 4 5 6 7 7 7 7 8 7 8 10 8 7 6 7 7 5 5 5 4 4 4 3 3 3
5 5 5 5 6 5 6 5 4 2 2 2 2 2 2 2 3 3 1 1 2 4 5 5 5 5 6 9 10 10 10 11 13 8 6 6 6 6 5 5 4 3 3
Wind_Direction
248 238 227 216 208 203 199 201 202 200 193 193 195 197 204 204 204 206 205 203 201 199 198 201 193 187 195 198 192 184 191 204 167 168 290 288 255 246 244 237 238 242 242
259 247 232 215 209 207 204 202 205 200 195 198 198 198 196 202 205 203 204 204 202 200 201 200 198 194 197 197 193 183 179 193 174 171 192 300 313 288 249 234 234 241 241
250 251 237 222 213 212 208 206 205 201 199 196 188 178 172 171 188 202 207 206 204 202 201 200 198 195 195 202 199 193 188 199 199 190 176 199 242 288 291 253 244 244 242
247 247 240 230 219 218 211 208 205 203 198 192 188 187 194 201 205 204 205 202 201 202 202 199 198 198 199 202 201 199 198 190 201 205 216 212 187 208 286 291 263 246 243
249 249 242 235 228 220 212 209 206 204 196 193 195 196 204 209 202 191 194 199 201 203 202 200 199 201 202 203 200 198 201 201 201 195 190 207 218 213 226 268 281 283 253
257 255 253 243 238 224 213 207 205 206 198 196 198 200 205 203 193 195 199 201 202 203 204 201 202 203 203 204 203 202 202 205 206 203 193 187 192 203 208 235 249 260 262
263 266 266 253 243 229 216 208 205 207 200 198 201 204 206 203 203 202 202 200 201 204 205 201 203 204 205 203 200 200 204 204 204 207 209 209 212 193 192 216 239 248 262
269 264 260 253 246 234 218 209 209 210 202 202 205 206 206 206 209 205 202 202 206 207 199 200 203 204 202 201 200 203 205 204 208 212 209 213 216 204 200 199 207 249 263
286 280 279 269 256 241 224 212 211 213 206 205 206 207 206 206 208 205 203 204 205 199 194 197 201 202 201 200 198 206 207 205 209 211 210 214 214 207 210 207 202 214 252
320 317 310 295 279 258 238 219 213 213 211 205 205 208 207 207 206 201 203 204 202 195 192 196 199 199 199 198 199 205 205 204 209 207 207 214 214 209 207 208 210 211 225
321 320 313 304 295 290 269 238 223 217 214 209 208 206 206 205 202 204 206 204 199 195 196 196 197 199 199 198 200 206 202 205 209 206 207 215 208 207 206 202 205 212 213
317 315 316 322 320 306 286 260 236 224 221 211 206 209 205 199 202 207 206 200 199 198 197 194 196 199 200 198 201 205 205 207 209 209 208 215 205 206 203 202 209 214 211
322 322 320 320 313 305 291 274 254 239 226 207 204 208 206 201 205 207 203 198 197 196 194 193 197 200 200 199 202 204 206 209 210 208 208 209 200 207 207 206 211 214 213
314 315 313 310 307 299 288 276 271 254 231 210 204 212 214 209 206 203 199 198 196 196 197 198 199 200 199 199 201 202 205 207 209 207 206 204 202 207 205 207 210 205 204
312 312 310 305 304 305 301 288 276 262 233 214 214 219 217 209 202 199 198 196 196 198 197 196 199 198 199 201 199 200 202 203 203 203 204 205 203 204 202 202 201 194 199
301 304 303 302 301 300 299 292 279 263 234 220 223 222 212 206 203 202 196 194 197 197 193 197 199 199 204 199 195 195 198 199 198 200 202 203 201 205 207 207 199 192 196
288 293 295 294 293 292 289 285 279 269 240 230 228 218 209 209 208 199 195 197 197 193 196 200 198 202 204 196 195 192 193 196 198 197 195 196 199 195 193 197 193 196 203
283 284 285 287 288 288 288 288 287 276 250 240 235 222 210 211 205 196 200 200 194 194 200 201 200 201 201 191 191 188 191 196 197 196 194 191 191 191 184 177 181 190 202
277 279 280 284 291 294 295 296 298 293 267 252 241 226 210 206 200 199 201 198 192 196 199 196 195 197 198 188 187 181 188 194 198 196 192 189 191 191 180 173 178 182 195
284 285 289 293 296 299 301 293 294 296 281 267 251 230 210 203 202 201 197 193 191 193 189 192 194 194 195 187 183 178 185 190 191 189 192 193 190 187 181 178 180 190 197
290 288 288 288 291 299 302 296 304 297 293 291 274 240 216 208 203 194 186 177 176 177 183 187 192 192 191 185 182 180 187 188 186 186 189 192 187 186 185 184 187 196 177
299 299 297 297 305 308 303 305 302 302 307 296 275 251 223 205 189 178 178 176 175 177 179 179 183 189 185 183 187 187 189 181 180 184 181 182 179 179 181 183 181 171 157
297 302 298 299 306 304 284 284 297 308 305 297 281 269 235 202 189 182 179 177 178 179 181 181 187 190 185 185 184 185 184 181 176 171 170 169 170 168 169 170 167 159 151
295 300 300 303 307 307 298 283 298 306 305 300 292 279 227 205 193 186 184 183 184 183 183 186 188 184 183 182 180 181 179 174 160 148 155 156 156 150 150 152 153 151 160
298 300 297 299 303 312 309 308 305 294 290 296 304 288 251 210 201 195 198 197 201 192 188 191 185 182 193 197 185 175 173 168 158 143 136 138 144 149 148 144 147 154 158
305 309 305 301 304 310 309 310 303 283 277 295 294 271 246 219 203 184 160 146 167 172 177 178 179 191 188 175 178 174 166 160 154 144 155 163 167 171 172 172 174 176 176
Height
1433 1436 1437 1440 1442 1444 1447 1450 1453 1457 1461 1465 1468 1471 1474 1478 1481 1484 1487 1491 1493 1496 1499 1501 1503 1505 1507 1509 1511 1513 1514 1515 1517 1517 1517 1516 1516 1516 1516 1516 1516 1516 1516
1427 1429 1430 1432 1434 1436 1439 1442 1445 1449 1453 1457 1460 1464 1468 1471 1475 1479 1482 1485 1488 1491 1493 1496 1498 1500 1502 1505 1507 1508 1510 1511 1513 1513 1513 1513 1512 1511 1511 1511 1511 1512 1512
1420 1422 1424 1425 1427 1429 1431 1434 1438 1441 1445 1450 1455 1459 1463 1466 1469 1471 1474 1478 1482 1485 1487 1490 1493 1495 1497 1499 1501 1503 1505 1506 1508 1509 1510 1509 1507 1507 1506 1506 1507 1507 1507
1414 1416 1417 1419 1420 1422 1425 1428 1430 1434 1438 1442 1446 1449 1452 1455 1458 1463 1467 1471 1475 1478 1481 1484 1487 1489 1492 1494 1496 1498 1500 1501 1502 1504 1505 1506 1505 1504 1502 1502 1503 1503 1503
1408 1409 1410 1412 1414 1416 1419 1421 1424 1427 1430 1434 1438 1442 1445 1449 1453 1457 1461 1464 1468 1471 1474 1477 1480 1483 1485 1487 1490 1492 1494 1495 1497 1498 1499 1499 1500 1499 1499 1497 1497 1497 1498
1403 1404 1404 1406 1407 1409 1411 1414 1416 1419 1423 1426 1430 1433 1437 1442 1445 1449 1452 1456 1460 1463 1467 1470 1473 1475 1478 1481 1483 1486 1488 1489 1491 1492 1493 1493 1494 1493 1494 1492 1491 1491 1491
1398 1399 1399 1400 1402 1403 1405 1407 1410 1412 1415 1419 1422 1426 1430 1434 1437 1441 1445 1448 1452 1455 1458 1462 1465 1468 1471 1474 1476 1479 1480 1482 1484 1485 1486 1487 1487 1488 1488 1487 1486 1485 1484
1394 1394 1395 1396 1397 1398 1400 1401 1403 1406 1409 1412 1415 1419 1423 1427 1430 1434 1437 1441 1444 1448 1451 1455 1458 1461 1464 1467 1469 1471 1473 1475 1477 1478 1479 1480 1481 1482 1482 1482 1481 1479 1478
1391 1391 1391 1391 1392 1393 1394 1395 1397 1399 1402 1405 1408 1412 1415 1419 1422 1426 1430 1433 1437 1441 1445 1448 1450 1453 1456 1459 1462 1464 1466 1468 1469 1471 1472 1473 1474 1475 1476 1476 1476 1476 1472
1388 1388 1388 1388 1388 1388 1389 1390 1392 1393 1396 1398 1401 1404 1408 1412 1416 1419 1422 1426 1430 1434 1437 1440 1443 1446 1449 1452 1454 1456 1459 1461 1462 1464 1465 1466 1467 1468 1469 1469 1469 1469 1468
1387 1387 1386 1386 1385 1384 1384 1385 1386 1388 1390 1392 1395 1398 1401 1405 1409 1412 1415 1419 1422 1426 1429 1433 1436 1439 1441 1444 1446 1449 1451 1453 1455 1456 1458 1459 1460 1461 1462 1462 1462 1462 1462
1387 1386 1384 1383 1382 1381 1381 1381 1382 1383 1385 1387 1389 1392 1395 1398 1402 1405 1408 1412 1415 1419 1422 1425 1428 1431 1434 1436 1439 1441 1443 1445 1447 1449 1450 1452 1453 1454 1454 1455 1455 1455 1455
1385 1383 1381 1380 1379 1378 1377 1378 1378 1379 1380 1382 1384 1386 1389 1392 1395 1398 1402 1405 1408 1412 1415 1418 1420 1423 1426 1428 1431 1433 1435 1437 1439 1441 1442 1444 1445 1446 1447 1447 1448 1448 1448
1383 1381 1379 1378 1376 1375 1374 1374 1374 1375 1375 1377 1378 1380 1383 1385 1388 1392 1395 1398 1401 1404 1407 1410 1413 1415 1418 1421 1423 1425 1427 1429 1431 1433 1435 1436 1437 1438 1440 1440 1441 1441 1441
1381 1379 1377 1376 1374 1372 1371 1370 1370 1370 1370 1371 1372 1374 1377 1380 1382 1385 1388 1391 1394 1397 1400 1403 1405 1408 1410 1412 1415 1418 1420 1422 1424 1425 1427 1429 1430 1431 1432 1433 1434 1434 1434
1378 1376 1374 1373 1371 1369 1368 1367 1365 1365 1365 1365 1367 1368 1370 1372 1375 1378 1380 1383 1386 1389 1392 1395 1397 1399 1402 1405 1407 1410 1413 1415 1416 1418 1420 1422 1423 1424 1425 1426 1427 1428 1428
1374 1373 1371 1369 1367 1366 1364 1362 1361 1360 1359 1360 1361 1362 1364 1365 1368 1370 1373 1376 1379 1382 1385 1387 1390 1392 1395 1397 1400 1403 1405 1407 1409 1411 1413 1414 1415 1417 1418 1419 1420 1420 1421
1370 1368 1366 1364 1363 1361 1360 1358 1356 1354 1354 1353 1354 1356 1357 1359 1361 1363 1366 1369 1371 1374 1377 1380 1382 1385 1387 1390 1393 1395 1398 1400 1402 1404 1406 1407 1409 1410 1411 1412 1413 1413 1414
1365 1363 1361 1359 1358 1356 1354 1352 1350 1349 1348 1348 1348 1349 1351 1352 1354 1356 1358 1361 1364 1367 1370 1372 1375 1378 1380 1383 1386 1389 1391 1393 1395 1397 1399 1401 1402 1404 1405 1406 1407 1407 1407
1360 1358 1356 1355 1353 1351 1350 1347 1345 1343 1342 1342 1343 1344 1345 1346 1347 1349 1352 1354 1357 1360 1363 1365 1368 1371 1373 1376 1379 1382 1384 1386 1388 1390 1392 1394 1395 1397 1398 1399 1400 1400 1401
1355 1353 1352 1350 1348 1347 1345 1342 1340 1339 1338 1337 1337 1338 1339 1340 1342 1343 1346 1348 1351 1354 1356 1359 1362 1365 1367 1370 1372 1375 1377 1379 1381 1383 1385 1387 1389 1390 1392 1393 1394 1395 1395
1350 1348 1346 1344 1343 1342 1341 1338 1336 1334 1334 1333 1333 1333 1333 1334 1336 1338 1340 1342 1345 1347 1350 1352 1355 1358 1361 1363 1366 1368 1371 1373 1375 1376 1378 1381 1383 1384 1386 1387 1388 1389 1389
1345 1343 1341 1339 1338 1337 1336 1334 1332 1331 1330 1328 1328 1328 1328 1329 1331 1332 1334 1336 1338 1341 1343 1346 1348 1351 1354 1357 1360 1362 1365 1367 1369 1371 1373 1375 1377 1378 1380 1381 1382 1383 1383
1340 1339 1337 1334 1332 1332 1331 1329 1328 1327 1326 1324 1323 1323 1323 1324 1325 1327 1329 1330 1332 1334 1337 1339 1342 1345 1348 1350 1353 1355 1358 1360 1363 1365 1367 1369 1371 1373 1374 1376 1377 1377 1378
1335 1334 1332 1330 1328 1326 1325 1325 1324 1323 1322 1320 1319 1319 1319 1319 1320 1322 1323 1325 1326 1328 1331 1333 1336 1338 1341 1344 1347 1349 1352 1354 1356 1359 1361 1363 1365 1367 1369 1370 1371 1372 1373
1330 1329 1327 1325 1323 1322 1320 1320 1320 1319 1317 1316 1315 1315 1315 1315 1316 1317 1318 1320 1322 1324 1327 1330 1332 1334 1337 1340 1342 1345 1347 1349 1352 1354 1355 1357 1359 1361 1363 1365 1366 1368 1369